Location: LDNL
(36.4545°S, 141.6685°E)
Time: 11:53:17
(UTC+10:00)

Explorer 7 - Pass Details

Date: 14 August 2022
Orbit: 482 x 668 km, 50.3° (Epoch: 26 September)

Event Time Altitude Azimuth Distance (km) Brightness Sun altitude
Rises 21:04:24 0° 238° (WSW) 2,991 11.4 -37.7°
Enters shadow 21:07:30 - 217° (SW) 2,123 10.2 -38.3°
Reaches altitude 10° 21:07:51 10° 214° (SSW) 2,049 - -38.4°
Maximum altitude 21:10:25 14° 180° (S) 1,747 - -38.9°
Drops below altitude 10° 21:12:56 10° 147° (SSE) 1,990 - -39.4°
Sets 21:16:11 0° 122° (ESE) 2,848 - -40.0°
